Storm Lake, IA

3:36 AM CST on January 23, 2017 (GMT -0600)
Storm Lake Municipal

Weather History for KSLB - May, 2013

Change the Weather History Date:

Monday, May 13, 2013

  Actual Average Record
Temperature  
Mean Temperature 61 °F -  
Max Temperature 80 °F 69 °F 91 °F (2007)
Min Temperature 42 °F 47 °F 26 °F (1997)
Degree Days  
Heating Degree Days 4    
Growing Degree Days 11 (Base 50)    
Moisture  
Dew Point 36 °F    
Average Humidity 37    
Maximum Humidity 53    
Minimum Humidity 26    
Precipitation  
Precipitation 0.00 in - - ()
Sea Level Pressure  
Sea Level Pressure 29.96 in    
Wind  
Wind Speed 13 mph (SSW)    
Max Wind Speed 30 mph    
Max Gust Speed 41 mph    
Visibility 10 miles    
Events      
Averages and records for this station are not official NWS values.
T = Trace of Precipitation, MM = Missing Value Source: NWS Daily Summary

Daily Weather History Graph

Daily Weather History Graph

Search for Another Location

Airport or City:

Trip Planner

Search our weather history database for the weather conditions in past years. The results will help you decide how hot, cold, wet, or windy it might be!

Date:

Astronomy

May. 13, 2013 Rise Set
Actual Time 6:00 AM CDT 8:34 PM CDT
Civil Twilight 5:28 AM CDT 9:06 PM CDT
Nautical Twilight 4:48 AM CDT 9:47 PM CDT
Astronomical Twilight 4:03 AM CDT 10:32 PM CDT
Moon 8:47 AM CDT (5/13) 11:44 PM CDT (5/13)
Length of Visible Light 15h 38m
Length of Day
14h 33m
Waxing Crescent, 12% of the Moon is Illuminated
May 13
Waxing Crescent
May 17
First Quarter
May 24
Full
May 31
Last Quarter
Jun 8
New

Hourly Weather History & Observations

Time (CDT) Temp. Windchill Dew Point Humidity Pressure Visibility Wind Dir Wind Speed Gust Speed Precip Events Conditions
12:15 AM 48.2 °F - 21.2 °F 34% 30.10 in 10.0 mi SSE 5.8 mph - N/A   Clear
12:35 AM 46.4 °F 45.2 °F 23.0 °F 40% 30.10 in - SE 3.5 mph - N/A   Clear
12:55 AM 48.2 °F - 23.0 °F 37% 30.11 in 10.0 mi South 6.9 mph - N/A   Clear
1:15 AM 46.4 °F 42.9 °F 21.2 °F 37% 30.11 in 10.0 mi South 6.9 mph - N/A   Clear
1:35 AM 48.2 °F - 21.2 °F 34% 30.10 in 10.0 mi South 9.2 mph - N/A   Clear
1:55 AM 46.4 °F 41.9 °F 21.2 °F 37% 30.10 in 10.0 mi South 9.2 mph - N/A   Clear
2:15 AM 46.4 °F 41.9 °F 21.2 °F 37% 30.10 in 10.0 mi South 9.2 mph - N/A   Clear
2:35 AM 46.4 °F 41.9 °F 21.2 °F 37% 30.10 in 10.0 mi South 9.2 mph - N/A   Clear
2:55 AM 46.4 °F 44.3 °F 24.8 °F 43% 30.09 in 10.0 mi SSE 4.6 mph - N/A   Clear
3:15 AM 46.4 °F 41.9 °F 23.0 °F 40% 30.09 in 10.0 mi South 9.2 mph - N/A   Clear
3:35 AM 46.4 °F 41.5 °F 23.0 °F 40% 30.09 in 10.0 mi South 10.4 mph - N/A   Clear
3:55 AM 46.4 °F 41.1 °F 23.0 °F 40% 30.08 in 10.0 mi South 11.5 mph - N/A   Clear
4:15 AM 44.6 °F 38.8 °F 23.0 °F 43% 30.09 in 10.0 mi South 11.5 mph - N/A   Clear
4:35 AM 44.6 °F 38.8 °F 23.0 °F 43% 30.08 in 10.0 mi South 11.5 mph - N/A   Clear
4:55 AM 44.6 °F 38.8 °F 23.0 °F 43% 30.07 in 10.0 mi South 11.5 mph - N/A   Clear
5:15 AM 42.8 °F 37.0 °F 24.8 °F 49% 30.07 in 10.0 mi South 10.4 mph - N/A   Clear
5:35 AM 44.6 °F 38.8 °F 24.8 °F 46% 30.07 in 10.0 mi South 11.5 mph - N/A   Clear
5:55 AM 44.6 °F 39.7 °F 26.6 °F 49% 30.08 in 10.0 mi South 9.2 mph - N/A   Clear
6:15 AM 44.6 °F 38.8 °F 26.6 °F 49% 30.07 in 10.0 mi South 11.5 mph - N/A   Clear
6:35 AM 44.6 °F 39.2 °F 26.6 °F 49% 30.07 in 10.0 mi South 10.4 mph - N/A   Clear
6:55 AM 44.6 °F 39.7 °F 28.4 °F 53% 30.06 in 10.0 mi South 9.2 mph - N/A   Clear
7:15 AM 48.2 °F - 26.6 °F 43% 30.07 in 10.0 mi South 11.5 mph - N/A   Clear
7:35 AM 50.0 °F - 30.2 °F 47% 30.07 in 10.0 mi South 10.4 mph - N/A   Clear
7:55 AM 51.8 °F - 32.0 °F 47% 30.06 in 10.0 mi South 12.7 mph - N/A   Clear
8:15 AM 55.4 °F - 35.6 °F 47% 30.06 in 10.0 mi SSW 13.8 mph - N/A   Clear
8:35 AM 57.2 °F - 37.4 °F 48% 30.05 in 10.0 mi SSW 15.0 mph - N/A   Clear
8:55 AM 59.0 °F - 37.4 °F 45% 30.04 in 10.0 mi South 13.8 mph - N/A   Clear
9:15 AM 60.8 °F - 37.4 °F 42% 30.04 in 10.0 mi South 12.7 mph - N/A   Clear
9:35 AM 62.6 °F - 39.2 °F 42% 30.04 in 10.0 mi SSW 12.7 mph - N/A   Clear
9:55 AM 62.6 °F - 39.2 °F 42% 30.02 in 10.0 mi SSW 18.4 mph - N/A   Clear
10:15 AM 64.4 °F - 39.2 °F 40% 30.02 in 10.0 mi South 16.1 mph - N/A   Clear
10:35 AM 66.2 °F - 39.2 °F 37% 30.02 in 10.0 mi South 17.3 mph 24.2 mph N/A   Clear
10:55 AM 68.0 °F - 41.0 °F 37% 30.01 in 10.0 mi SSW 19.6 mph 25.3 mph N/A   Clear
11:15 AM 69.8 °F - 41.0 °F 35% 29.99 in 10.0 mi South 19.6 mph - N/A   Clear
11:35 AM 69.8 °F - 41.0 °F 35% 29.99 in 10.0 mi SSW 20.7 mph - N/A   Clear
11:55 AM 71.6 °F - 42.8 °F 35% 29.98 in 10.0 mi South 19.6 mph - N/A   Partly Cloudy
12:15 PM 73.4 °F - 42.8 °F 33% 29.97 in 10.0 mi South 21.9 mph 28.8 mph N/A   Clear
12:35 PM 73.4 °F - 42.8 °F 33% 29.95 in 10.0 mi South 23.0 mph - N/A   Clear
12:55 PM 75.2 °F - 42.8 °F 31% 29.93 in 10.0 mi SSW 24.2 mph 31.1 mph N/A   Clear
1:15 PM 77.0 °F - 42.8 °F 29% 29.93 in 10.0 mi South 25.3 mph 31.1 mph N/A   Clear
1:35 PM 77.0 °F - 44.6 °F 32% 29.92 in 10.0 mi SSW 23.0 mph 29.9 mph N/A   Clear
1:55 PM 77.0 °F - 42.8 °F 29% 29.90 in 10.0 mi SSW 24.2 mph 35.7 mph N/A   Clear
2:15 PM 78.8 °F - 42.8 °F 28% 29.89 in 10.0 mi SSW 25.3 mph 35.7 mph N/A   Clear
2:35 PM 78.8 °F - 42.8 °F 28% 29.88 in 10.0 mi SSW 29.9 mph 41.4 mph N/A   Clear
3:35 PM 80.6 °F - 42.8 °F 26% 29.86 in 10.0 mi SSW 24.2 mph 33.4 mph N/A   Clear
3:55 PM 80.6 °F - 42.8 °F 26% 29.85 in 10.0 mi SSW 25.3 mph 34.5 mph N/A   Clear
4:15 PM 80.6 °F - 42.8 °F 26% 29.84 in 10.0 mi SSW 26.5 mph 38.0 mph N/A   Clear
4:35 PM 80.6 °F - 42.8 °F 26% 29.84 in 10.0 mi SW 24.2 mph 34.5 mph N/A   Clear
4:55 PM 80.6 °F - 42.8 °F 26% 29.83 in 10.0 mi SW 26.5 mph 36.8 mph N/A   Clear
5:15 PM 80.6 °F - 42.8 °F 26% 29.83 in 10.0 mi SW 25.3 mph 39.1 mph N/A   Clear
5:35 PM 80.6 °F - 42.8 °F 26% 29.82 in 10.0 mi SW 27.6 mph 33.4 mph N/A   Clear
5:55 PM 80.6 °F - 42.8 °F 26% 29.82 in 6.0 mi SW 26.5 mph 33.4 mph N/A   Haze
6:35 PM 80.6 °F - 42.8 °F 26% 29.80 in 10.0 mi SW 26.5 mph 33.4 mph N/A   Clear
7:15 PM 78.8 °F - 42.8 °F 28% 29.79 in 10.0 mi SSW 20.7 mph - N/A   Clear
7:35 PM 78.8 °F - 42.8 °F 28% 29.79 in 10.0 mi SSW 18.4 mph 24.2 mph N/A   Clear
7:55 PM 77.0 °F - 42.8 °F 29% 29.79 in 10.0 mi SSW 16.1 mph - N/A   Clear
8:15 PM 75.2 °F - 42.8 °F 31% 29.78 in 10.0 mi SSW 18.4 mph 24.2 mph N/A   Clear
8:35 PM 75.2 °F - 42.8 °F 31% 29.79 in 10.0 mi SSW 17.3 mph - N/A   Clear
8:55 PM 73.4 °F - 42.8 °F 33% 29.79 in 10.0 mi SSW 18.4 mph - N/A   Clear
9:15 PM 71.6 °F - 42.8 °F 35% 29.79 in 10.0 mi SSW 17.3 mph - N/A   Clear
9:35 PM 71.6 °F - 42.8 °F 35% 29.79 in 10.0 mi SSW 17.3 mph 23.0 mph N/A   Clear
9:55 PM 71.6 °F - 42.8 °F 35% 29.79 in 10.0 mi SSW 18.4 mph - N/A   Clear
10:15 PM 69.8 °F - 44.6 °F 40% 29.79 in 10.0 mi SW 16.1 mph - N/A   Clear
10:35 PM 69.8 °F - 44.6 °F 40% 29.79 in 10.0 mi SW 18.4 mph - N/A   Clear
10:55 PM 69.8 °F - 44.6 °F 40% 29.79 in 10.0 mi SW 18.4 mph - N/A   Clear
11:15 PM 69.8 °F - 46.4 °F 43% 29.79 in 10.0 mi SW 19.6 mph - N/A   Clear
11:35 PM 69.8 °F - 46.4 °F 43% 29.79 in 10.0 mi SW 18.4 mph - N/A   Clear
11:55 PM 68.0 °F - 48.2 °F 49% 29.79 in 10.0 mi SW 17.3 mph - N/A   Clear